TimePST,TemperatureF,Dew PointF,Humidity,Sea Level PressureIn,VisibilityMPH,Wind Direction,Wind SpeedMPH,Gust SpeedMPH,PrecipitationIn,Events,Conditions,WindDirDegrees,DateUTC
12:53 AM,12.0,6.1,77,30.16,10.0,Calm,Calm,-,N/A,,Clear,0,2012-12-19 08:53:00
1:53 AM,10.0,5.0,80,30.19,10.0,North,-9999.0,-,N/A,,Clear,0,2012-12-19 09:53:00
2:53 AM,8.1,3.0,80,30.22,10.0,NW,4.6,-,N/A,,Clear,320,2012-12-19 10:53:00
3:53 AM,8.1,3.9,83,30.24,10.0,Calm,Calm,-,N/A,,Clear,0,2012-12-19 11:53:00
4:53 AM,3.9,1.0,88,30.29,10.0,ESE,5.8,-,N/A,,Clear,120,2012-12-19 12:53:00
5:53 AM,5.0,1.0,84,30.30,10.0,NNE,5.8,-,N/A,,Clear,20,2012-12-19 13:53:00
6:53 AM,8.1,3.9,83,30.32,10.0,Calm,Calm,-,N/A,,Clear,0,2012-12-19 14:53:00
7:53 AM,6.1,-0.0,76,30.36,10.0,East,3.5,-,N/A,,Clear,80,2012-12-19 15:53:00
8:53 AM,14.0,10.0,84,30.35,10.0,Calm,Calm,-,N/A,,Clear,0,2012-12-19 16:53:00
10:53 AM,-9999,-9999,N/A,30.25,-9999.0,North,-9999.0,-,N/A,,Unknown,0,2012-12-19 18:53:00
11:53 AM,-9999,-9999,N/A,30.24,-9999.0,SSW,5.8,-,N/A,,Clear,200,2012-12-19 19:53:00
12:53 PM,30.9,10.9,43,30.23,10.0,Variable,4.6,-,N/A,,Clear,0,2012-12-19 20:53:00
1:53 PM,32.0,12.0,44,30.21,10.0,SSE,6.9,-,N/A,,Clear,160,2012-12-19 21:53:00
2:53 PM,32.0,10.9,42,30.21,10.0,Variable,6.9,-,N/A,,Clear,0,2012-12-19 22:53:00
3:53 PM,30.9,10.9,43,30.21,10.0,SSE,3.5,-,N/A,,Clear,160,2012-12-19 23:53:00
4:53 PM,28.9,10.9,47,30.20,10.0,ENE,3.5,-,N/A,,Clear,70,2012-12-20 00:53:00
5:53 PM,24.1,10.9,57,30.20,10.0,North,3.5,-,N/A,,Clear,10,2012-12-20 01:53:00
6:53 PM,21.9,10.9,63,30.20,10.0,NW,3.5,-,N/A,,Clear,320,2012-12-20 02:53:00
7:53 PM,19.9,10.0,65,30.20,10.0,Calm,Calm,-,N/A,,Clear,0,2012-12-20 03:53:00
8:53 PM,17.1,8.1,68,30.20,10.0,South,4.6,-,N/A,,Clear,170,2012-12-20 04:53:00
9:53 PM,18.0,10.0,71,30.20,10.0,North,4.6,-,N/A,,Clear,360,2012-12-20 05:53:00
10:53 PM,17.1,9.0,71,30.19,10.0,Calm,Calm,-,N/A,,Clear,0,2012-12-20 06:53:00
11:53 PM,14.0,6.1,71,30.18,10.0,Calm,Calm,-,N/A,,Clear,0,2012-12-20 07:53:00